Location: Hurecourt
(47.9030°N, 6.0653°E)
Time: 08:37:19
(UTC+00:00)

Cosmos 1140 Rocket - Pass Details

Date: 14 July 2020
Orbit: 744 x 768 km, 74.1° (Epoch: 14 August)

Event Time Altitude Azimuth Distance (km) Brightness Sun altitude
Exits shadow 02:32:13 13° 238° (WSW) 2,105 5.2 -10.7°
Maximum altitude 02:36:27 36° 302° (WNW) 1,193 4.4 -10.2°
Drops below altitude 10° 02:41:18 10° 9° (N) 2,314 7.0 -9.7°
Sets 02:43:53 0° 18° (NNE) 3,247 8.1 -9.4°
